Location: *
(44.1392°N, 4.8079°E)
Time: 07:10:16
(UTC+00:00)

MOZ.5/SAFIR/RUBIN 5/SL-8 - Pass Details

Date: 21 June 2021
Orbit: 677 x 706 km, 98.1° (Epoch: 31 July)

Event Time Altitude Azimuth Distance (km) Brightness Sun altitude
Exits shadow 00:39:13 33° 138° (SE) 1,168 4.6 -21.2°
Maximum altitude 00:41:11 60° 73° (ENE) 807 4.2 -21.1°
Drops below altitude 10° 00:45:53 10° 354° (N) 2,182 7.3 -20.9°
Sets 00:48:11 0° 351° (N) 3,108 8.3 -20.8°
